TimeCDT,TemperatureF,Dew PointF,Humidity,Sea Level PressureIn,VisibilityMPH,Wind Direction,Wind SpeedMPH,Gust SpeedMPH,PrecipitationIn,Events,Conditions,WindDirDegrees,DateUTC
12:53 AM,71.1,66.0,84,30.00,10.0,South,3.5,-,N/A,,Clear,180,2012-10-06 05:53:00
1:53 AM,70.0,66.0,87,30.00,10.0,South,5.8,-,N/A,,Clear,190,2012-10-06 06:53:00
2:53 AM,69.1,66.0,90,29.99,10.0,South,6.9,-,N/A,,Clear,190,2012-10-06 07:53:00
3:53 AM,69.1,66.0,90,30.00,10.0,NNW,5.8,-,N/A,,Clear,340,2012-10-06 08:53:00
4:53 AM,70.0,66.0,87,30.01,10.0,Calm,Calm,-,N/A,,Overcast,0,2012-10-06 09:53:00
5:53 AM,66.9,64.0,90,30.02,10.0,North,5.8,-,N/A,,Mostly Cloudy,350,2012-10-06 10:53:00
6:53 AM,66.0,63.0,90,30.04,10.0,NNW,3.5,-,N/A,,Overcast,330,2012-10-06 11:53:00
7:22 AM,64.4,62.6,94,30.05,9.0,North,3.5,-,N/A,,Mostly Cloudy,350,2012-10-06 12:22:00
7:32 AM,64.4,62.6,94,30.05,9.0,Variable,3.5,-,N/A,,Mostly Cloudy,0,2012-10-06 12:32:00
7:53 AM,64.0,62.1,93,30.04,9.0,Variable,4.6,-,N/A,,Overcast,0,2012-10-06 12:53:00
9:53 AM,66.0,61.0,84,30.07,10.0,North,5.8,-,N/A,,Overcast,10,2012-10-06 14:53:00
10:29 AM,68.0,60.8,78,30.09,10.0,NE,3.5,-,N/A,,Overcast,40,2012-10-06 15:29:00
10:53 AM,69.1,61.0,75,30.07,10.0,Calm,Calm,-,N/A,,Overcast,0,2012-10-06 15:53:00
11:53 AM,66.9,62.1,84,30.08,9.0,Calm,Calm,-,N/A,,Overcast,0,2012-10-06 16:53:00
12:53 PM,69.1,62.1,78,30.06,8.0,Variable,3.5,-,N/A,,Overcast,0,2012-10-06 17:53:00
1:53 PM,71.1,63.0,75,30.04,9.0,Variable,4.6,-,N/A,,Overcast,0,2012-10-06 18:53:00
2:35 PM,71.6,64.4,78,30.03,9.0,North,6.9,-,N/A,,Mostly Cloudy,360,2012-10-06 19:35:00
2:53 PM,72.0,63.0,73,30.02,9.0,Variable,3.5,-,N/A,,Overcast,0,2012-10-06 19:53:00
3:53 PM,69.1,62.1,78,30.02,8.0,North,8.1,-,N/A,,Overcast,360,2012-10-06 20:53:00
4:07 PM,68.0,62.6,83,30.03,7.0,North,8.1,-,N/A,,Overcast,10,2012-10-06 21:07:00
4:38 PM,66.2,60.8,83,30.04,8.0,Variable,5.8,-,N/A,,Overcast,0,2012-10-06 21:38:00
4:53 PM,64.9,61.0,87,30.03,9.0,Variable,4.6,-,N/A,,Overcast,0,2012-10-06 21:53:00
5:33 PM,64.4,60.8,88,30.03,10.0,Variable,5.8,-,N/A,,Overcast,0,2012-10-06 22:33:00
5:53 PM,64.9,60.1,84,30.02,10.0,Variable,5.8,-,N/A,,Overcast,0,2012-10-06 22:53:00
6:53 PM,64.0,59.0,84,30.04,10.0,Variable,3.5,-,N/A,,Overcast,0,2012-10-06 23:53:00
7:53 PM,61.0,57.0,87,30.06,8.0,Variable,4.6,-,N/A,,Overcast,0,2012-10-07 00:53:00
8:03 PM,60.8,55.4,82,30.07,7.0,North,8.1,-,N/A,,Overcast,10,2012-10-07 01:03:00
8:53 PM,59.0,55.0,87,30.09,7.0,Variable,6.9,-,N/A,,Overcast,0,2012-10-07 01:53:00
9:53 PM,57.0,53.1,87,30.11,7.0,Variable,5.8,-,N/A,,Overcast,0,2012-10-07 02:53:00
11:53 PM,54.0,50.0,86,30.14,8.0,NNE,4.6,-,N/A,,Overcast,20,2012-10-07 04:53:00